| time (UTC) | temp F | wind direction | speed MPH | gust MPH | rain 1hr in | rain 24hr in | rain mn in | humidity % | barometer mb |
| 20260905141615 | 93 | 184 | 7.0 | 12.0 | 0.00 | 0.00 | 0.00 | 20 | 1025.6 |
| 20260905140109 | 94 | 22 | 6.0 | 16.0 | 0.00 | 0.00 | 0.00 | 20 | 1025.8 |
| 20260905134612 | 94 | 182 | 5.0 | 12.0 | 0.00 | 0.00 | 0.00 | 19 | 1025.9 |
| 20260905133102 | 94 | 265 | 8.0 | 15.0 | 0.00 | 0.00 | 0.00 | 20 | 1026.0 |
| 20260905131608 | 95 | 239 | 9.0 | 18.0 | 0.00 | 0.00 | 0.00 | 19 | 1026.0 |
| 20260905130113 | 95 | 191 | 8.0 | 14.0 | 0.00 | 0.00 | 0.00 | 20 | 1026.2 |
| 20260905124601 | 94 | 207 | 5.0 | 16.0 | 0.00 | 0.00 | 0.00 | 20 | 1026.3 |
| 20260905123102 | 94 | 265 | 3.0 | 14.0 | 0.00 | 0.00 | 0.00 | 21 | 1026.5 |
| 20260905121603 | 94 | 146 | 3.0 | 15.0 | 0.00 | 0.00 | 0.00 | 21 | 1026.6 |
| 20260905120105 | 93 | 57 | 3.0 | 14.0 | 0.00 | 0.00 | 0.00 | 22 | 1026.9 |
| 20260905114636 | 92 | 242 | 7.0 | 15.0 | 0.00 | 0.00 | 0.00 | 23 | 1026.9 |
| 20260905113102 | 92 | 216 | 5.0 | 14.0 | 0.00 | 0.00 | 0.00 | 23 | 1027.0 |
| 20260905111603 | 92 | 184 | 8.0 | 14.0 | 0.00 | 0.00 | 0.00 | 22 | 1027.1 |
| 20260905110059 | 91 | 203 | 4.0 | 15.0 | 0.00 | 0.00 | 0.00 | 23 | 1027.1 |
| 20260905104604 | 91 | 239 | 5.0 | 17.0 | 0.00 | 0.00 | 0.00 | 23 | 1027.3 |
| 20260905103104 | 91 | 216 | 5.0 | 13.0 | 0.00 | 0.00 | 0.00 | 23 | 1027.4 |
| 20260905101559 | 90 | 279 | 6.0 | 12.0 | 0.00 | 0.00 | 0.00 | 24 | 1027.5 |
| 20260905100114 | 89 | 195 | 4.0 | 12.0 | 0.00 | 0.00 | 0.00 | 24 | 1027.6 |
| 20260905094625 | 88 | 164 | 7.0 | 12.0 | 0.00 | 0.00 | 0.00 | 25 | 1027.6 |
| 20260905093103 | 87 | 211 | 3.0 | 9.0 | 0.00 | 0.00 | 0.00 | 28 | 1027.6 |
| 20260905091615 | 85 | 275 | 2.0 | 11.0 | 0.00 | 0.00 | 0.00 | 29 | 1027.5 |
| 20260905090105 | 83 | 226 | 2.0 | 5.0 | 0.00 | 0.00 | 0.00 | 30 | 1027.4 |
| 20260905084600 | 80 | 0 | 0.0 | 2.0 | 0.00 | 0.00 | 0.00 | 35 | 1027.3 |
| 20260905083103 | 78 | 78 | 2.0 | 3.0 | 0.00 | 0.00 | 0.00 | 36 | 1027.1 |
| 20260905081603 | 76 | 64 | 1.0 | 2.0 | 0.00 | 0.00 | 0.00 | 37 | 1027.1 |
| 20260905080106 | 75 | 0 | 0.0 | 1.0 | 0.00 | 0.00 | 0.00 | 42 | 1027.1 |
| 20260905074604 | 70 | 0 | 0.0 | 2.0 | 0.00 | 0.00 | 0.00 | 43 | 1027.2 |
| 20260905073113 | 69 | 250 | 1.0 | 2.0 | 0.00 | 0.00 | 0.00 | 45 | 1027.1 |
| 20260905071601 | 70 | 0 | 0.0 | 1.0 | 0.00 | 0.00 | 0.00 | 43 | 1027.0 |
| 20260905070105 | 68 | 68 | 2.0 | 5.0 | 0.00 | 0.00 | 0.00 | 45 | 1026.8 |
| 20260905064615 | 67 | 60 | 2.0 | 3.0 | 0.00 | 0.00 | 0.00 | 46 | 1026.9 |
| 20260905063117 | 65 | 59 | 2.0 | 5.0 | 0.00 | 0.00 | 0.00 | 48 | 1026.7 |
| 20260905061624 | 66 | 70 | 1.0 | 4.0 | 0.00 | 0.00 | 0.00 | 46 | 1026.7 |
| 20260905060106 | 67 | 0 | 0.0 | 0.0 | 0.00 | 0.00 | 0.00 | 44 | 1026.6 |
| 20260905054606 | 66 | 0 | 0.0 | 1.0 | 0.00 | 0.00 | 0.00 | 44 | 1026.6 |
| 20260905053104 | 65 | 0 | 0.0 | 1.0 | 0.00 | 0.00 | 0.00 | 46 | 1026.5 |
| 20260905051612 | 66 | 0 | 0.0 | 0.0 | 0.00 | 0.00 | 0.00 | 46 | 1026.5 |
| 20260905050109 | 66 | 0 | 0.0 | 0.0 | 0.00 | 0.00 | 0.00 | 46 | 1026.3 |
| 20260905044607 | 66 | 0 | 0.0 | 0.0 | 0.00 | 0.00 | 0.00 | 46 | 1026.4 |
| 20260905043103 | 68 | 0 | 0.0 | 0.0 | 0.00 | 0.00 | 0.00 | 43 | 1026.2 |
| 20260905041603 | 67 | 0 | 0.0 | 0.0 | 0.00 | 0.00 | 0.00 | 45 | 1026.2 |
| 20260905040106 | 67 | 0 | 0.0 | 0.0 | 0.00 | 0.00 | 0.00 | 44 | 1026.3 |
| 20260905034613 | 68 | 0 | 0.0 | 0.0 | 0.00 | 0.00 | 0.00 | 42 | 1026.4 |
| 20260905033111 | 69 | 0 | 0.0 | 0.0 | 0.00 | 0.00 | 0.00 | 41 | 1026.4 |
| 20260905031616 | 68 | 0 | 0.0 | 1.0 | 0.00 | 0.00 | 0.00 | 41 | 1026.3 |
| 20260905030107 | 70 | 0 | 0.0 | 0.0 | 0.00 | 0.00 | 0.00 | 39 | 1026.5 |
| 20260905024605 | 70 | 0 | 0.0 | 0.0 | 0.00 | 0.00 | 0.00 | 39 | 1026.5 |
| 20260905023137 | 71 | 0 | 0.0 | 0.0 | 0.00 | 0.00 | 0.00 | 38 | 1026.6 |
| 20260905021605 | 71 | 0 | 0.0 | 1.0 | 0.00 | 0.00 | 0.00 | 38 | 1026.6 |
| 20260905020106 | 71 | 0 | 0.0 | 1.0 | 0.00 | 0.00 | 0.00 | 38 | 1026.7 |
| 20260905014611 | 73 | 0 | 1.0 | 7.0 | 0.00 | 0.00 | 0.00 | 35 | 1026.7 |
| 20260905013105 | 71 | 100 | 2.0 | 6.0 | 0.00 | 0.00 | 0.00 | 39 | 1026.7 |
| 20260905011607 | 72 | 75 | 2.0 | 3.0 | 0.00 | 0.00 | 0.00 | 38 | 1026.7 |
| 20260905010112 | 72 | 0 | 0.0 | 0.0 | 0.00 | 0.00 | 0.00 | 37 | 1026.8 |
| 20260905004614 | 72 | 0 | 0.0 | 1.0 | 0.00 | 0.00 | 0.00 | 38 | 1026.9 |
| 20260905003103 | 71 | 77 | 0.0 | 0.0 | 0.00 | 0.00 | 0.00 | 41 | 1026.8 |
| 20260905001611 | 73 | 0 | 0.0 | 0.0 | 0.00 | 0.00 | 0.00 | 38 | 1026.8 |
| 20260905000125 | 72 | 0 | 0.0 | 0.0 | 0.00 | 0.00 | 0.00 | 38 | 1026.7 |
| 20260904234602 | 72 | 0 | 0.0 | 0.0 | 0.00 | 0.00 | 0.00 | 38 | 1026.7 |
| 20260904233105 | 74 | 0 | 0.0 | 0.0 | 0.00 | 0.00 | 0.00 | 36 | 1026.9 |
| 20260904231603 | 74 | 0 | 0.0 | 2.0 | 0.00 | 0.00 | 0.00 | 35 | 1026.8 |
| 20260904230105 | 73 | 55 | 0.0 | 2.0 | 0.00 | 0.00 | 0.00 | 37 | 1026.7 |
| 20260904224605 | 76 | 0 | 0.0 | 1.0 | 0.00 | 0.00 | 0.00 | 34 | 1026.7 |
| 20260904223102 | 76 | 0 | 0.0 | 1.0 | 0.00 | 0.00 | 0.00 | 33 | 1026.7 |
| 20260904221605 | 77 | 0 | 0.0 | 1.0 | 0.00 | 0.00 | 0.00 | 33 | 1026.6 |
| 20260904220120 | 78 | 0 | 0.0 | 3.0 | 0.00 | 0.00 | 0.00 | 31 | 1026.7 |
| 20260904214604 | 78 | 114 | 2.0 | 4.0 | 0.00 | 0.00 | 0.00 | 31 | 1026.7 |
| 20260904213101 | 79 | 63 | 1.0 | 3.0 | 0.00 | 0.00 | 0.00 | 30 | 1026.7 |
| 20260904211608 | 79 | 111 | 1.0 | 3.0 | 0.00 | 0.00 | 0.00 | 30 | 1026.8 |
| 20260904210118 | 79 | 73 | 1.0 | 4.0 | 0.00 | 0.00 | 0.00 | 30 | 1026.9 |
| 20260904204604 | 79 | 0 | 0.0 | 2.0 | 0.00 | 0.00 | 0.00 | 30 | 1026.9 |
| 20260904203111 | 79 | 97 | 2.0 | 6.0 | 0.00 | 0.00 | 0.00 | 29 | 1026.8 |
| 20260904201602 | 81 | 101 | 2.0 | 7.0 | 0.00 | 0.00 | 0.00 | 27 | 1026.6 |
| 20260904194612 | 82 | 84 | 0.0 | 2.0 | 0.00 | 0.00 | 0.00 | 26 | 1026.5 |
| 20260904193116 | 82 | 75 | 1.0 | 6.0 | 0.00 | 0.00 | 0.00 | 26 | 1026.3 |
| 20260904191601 | 84 | 132 | 0.0 | 3.0 | 0.00 | 0.00 | 0.00 | 25 | 1025.9 |
| 20260904190107 | 85 | 144 | 2.0 | 4.0 | 0.00 | 0.00 | 0.00 | 24 | 1025.6 |
| 20260904184621 | 86 | 139 | 0.0 | 1.0 | 0.00 | 0.00 | 0.00 | 24 | 1025.6 |
| 20260904183103 | 88 | 322 | 0.0 | 4.0 | 0.00 | 0.00 | 0.00 | 23 | 1025.5 |
| 20260904181610 | 89 | 25 | 3.0 | 7.0 | 0.00 | 0.00 | 0.00 | 21 | 1025.5 |
| 20260904180119 | 89 | 341 | 3.0 | 8.0 | 0.00 | 0.00 | 0.00 | 21 | 1025.5 |
| 20260904174617 | 90 | 342 | 3.0 | 9.0 | 0.00 | 0.00 | 0.00 | 21 | 1025.6 |
| 20260904173107 | 90 | 18 | 5.0 | 12.0 | 0.00 | 0.00 | 0.00 | 21 | 1025.5 |
| 20260904171607 | 91 | 345 | 5.0 | 12.0 | 0.00 | 0.00 | 0.00 | 20 | 1025.5 |
| 20260904170101 | 91 | 331 | 5.0 | 10.0 | 0.00 | 0.00 | 0.00 | 20 | 1025.3 |
| 20260904164603 | 91 | 347 | 6.0 | 16.0 | 0.00 | 0.00 | 0.00 | 20 | 1025.3 |
| 20260904163110 | 92 | 356 | 6.0 | 14.0 | 0.00 | 0.00 | 0.00 | 19 | 1025.4 |
| 20260904161605 | 93 | 357 | 6.0 | 15.0 | 0.00 | 0.00 | 0.00 | 19 | 1025.3 |
| 20260904160105 | 92 | 31 | 7.0 | 17.0 | 0.00 | 0.00 | 0.00 | 19 | 1025.3 |
| 20260904154600 | 93 | 15 | 7.0 | 13.0 | 0.00 | 0.00 | 0.00 | 19 | 1025.3 |
| 20260904153115 | 93 | 342 | 7.0 | 16.0 | 0.00 | 0.00 | 0.00 | 19 | 1025.5 |
| 20260904151603 | 93 | 352 | 12.0 | 22.0 | 0.00 | 0.00 | 0.00 | 19 | 1025.6 |
| 20260904144602 | 93 | 66 | 11.0 | 20.0 | 0.00 | 0.00 | 0.00 | 19 | 1025.6 |
| 20260904143103 | 93 | 32 | 17.0 | 27.0 | 0.00 | 0.00 | 0.00 | 19 | 1025.8 |